CW2224 Weather Reports


time (UTC)temp
F
wind
direction
speed
knots
gust
knots
rain 1hr
in
rain 24hr
in
rain mn
in
humidity
%
barometer
mb
20260505121826 55 215 2.6 7.0 0.00 0.00 0.00 83 1013.2
20260505120331 55 216 1.7 7.0 0.00 0.00 0.00 84 1013.2
20260505114857 55 227 2.6 6.1 0.00 0.00 0.00 84 1013.1
20260505113343 55 246 2.6 7.0 0.00 0.00 0.00 84 1013.2
20260505111850 55 233 2.6 6.1 0.00 0.00 0.00 84 1012.9
20260505110326 55 169 2.6 6.1 0.00 0.00 0.00 84 1012.8
20260505101831 55 211 2.6 6.1 0.00 0.00 0.00 84 1012.7
20260505100332 55 287 2.6 7.0 0.00 0.00 0.00 84 1012.5
20260505094849 55 221 1.7 8.7 0.00 0.00 0.00 84 1012.5
20260505093329 55 242 2.6 7.0 0.00 0.00 0.00 85 1012.5
20260505091835 55 234 1.7 5.2 0.00 0.00 0.00 85 1012.2
20260505090332 55 223 1.7 5.2 0.00 0.00 0.00 85 1012.3
20260505084855 55 173 3.5 7.8 0.00 0.00 0.00 85 1012.2
20260505083336 55 226 2.6 8.7 0.00 0.00 0.00 85 1012.2
20260505081841 55 254 2.6 5.2 0.00 0.00 0.00 84 1012.1
20260505080327 56 258 2.6 7.0 0.00 0.00 0.00 84 1012.1
20260505074829 56 227 3.5 6.1 0.00 0.00 0.00 83 1012.0
20260505073326 56 200 0.9 4.3 0.00 0.00 0.00 84 1011.9
20260505071828 56 166 0.0 2.6 0.00 0.00 0.00 83 1011.7
20260505070326 56 166 0.9 5.2 0.00 0.00 0.00 82 1011.4
20260505064828 57 260 2.6 7.8 0.00 0.00 0.00 82 1011.3
20260505063329 57 235 2.6 7.8 0.00 0.00 0.00 81 1011.1
20260505061831 57 222 4.3 7.0 0.00 0.00 0.00 80 1010.9
20260505060337 58 178 3.5 7.8 0.00 0.00 0.00 80 1010.8
20260505054843 58 190 2.6 7.0 0.00 0.00 0.00 79 1010.8
20260505053349 59 224 2.6 7.8 0.00 0.00 0.00 78 1010.6
20260505051827 60 223 3.5 7.0 0.00 0.00 0.00 76 1010.7
20260505050328 61 223 2.6 7.0 0.00 0.00 0.00 74 1010.5
20260505040328 66 259 2.6 8.7 0.00 0.00 0.00 66 1009.5
20260505034823 67 269 2.6 9.6 0.00 0.00 0.00 64 1009.2
20260505033325 68 254 5.2 8.7 0.00 0.00 0.00 62 1008.9
20260505031827 70 262 4.3 9.6 0.00 0.00 0.00 59 1008.8
20260505030328 72 266 5.2 9.6 0.00 0.00 0.00 56 1008.5
20260505024850 74 254 4.3 7.8 0.00 0.00 0.00 53 1008.6
20260505023330 75 260 3.5 7.8 0.00 0.00 0.00 51 1008.4
20260505021833 77 252 4.3 7.8 0.00 0.00 0.00 50 1008.4
20260505020404 79 278 1.7 6.1 0.00 0.00 0.00 49 1008.3
20260505014851 79 251 4.3 8.7 0.00 0.00 0.00 47 1008.3
20260505013328 80 266 3.5 7.8 0.00 0.00 0.00 45 1008.3
20260505011829 81 278 2.6 7.0 0.00 0.00 0.00 43 1008.3
20260505010329 81 248 4.3 8.7 0.00 0.00 0.00 42 1008.2
20260505004851 82 265 2.6 7.0 0.00 0.00 0.00 42 1008.3
20260505003351 81 256 2.6 8.7 0.00 0.00 0.00 43 1008.4
20260505001832 81 248 3.5 7.0 0.00 0.00 0.00 41 1008.5
20260505000333 80 282 3.5 6.1 0.00 0.00 0.00 40 1008.4
20260504234835 82 227 3.5 6.1 0.00 0.00 0.00 35 1008.3
20260504233341 80 300 5.2 9.6 0.00 0.00 0.00 35 1008.3
20260504231849 81 258 4.3 9.6 0.00 0.00 0.00 34 1008.4
20260504230329 81 249 3.5 7.0 0.00 0.00 0.00 35 1008.6
20260504224831 82 264 3.5 7.0 0.00 0.00 0.00 31 1008.9
20260504223332 80 212 3.5 7.8 0.00 0.00 0.00 34 1009.0
20260504221838 80 285 3.5 7.8 0.00 0.00 0.00 37 1009.0
20260504220332 80 356 2.6 7.0 0.00 0.00 0.00 35 1009.1
20260504214838 79 260 4.3 7.8 0.00 0.00 0.00 35 1009.1
20260504213325 78 264 4.3 7.0 0.00 0.00 0.00 37 1009.2
20260504211852 78 278 3.5 7.8 0.00 0.00 0.00 38 1009.4
20260504210352 77 266 4.3 7.0 0.00 0.00 0.00 39 1009.5
20260504204837 77 252 4.3 7.8 0.00 0.00 0.00 42 1009.7
20260504203344 77 250 4.3 8.7 0.00 0.00 0.00 43 1009.7
20260504201850 76 241 2.6 7.0 0.00 0.00 0.00 48 1009.6
20260504200356 76 271 2.6 7.8 0.00 0.00 0.00 43 1009.8
20260504194842 75 262 3.5 7.0 0.00 0.00 0.00 44 1009.9
20260504193330 74 254 4.3 8.7 0.00 0.00 0.00 44 1009.8
20260504191827 75 241 3.5 7.8 0.00 0.00 0.00 45 1010.0
20260504190333 73 272 2.6 8.7 0.00 0.00 0.00 49 1010.0
20260504184837 73 243 5.2 7.0 0.00 0.00 0.00 49 1010.1
20260504183322 72 276 3.5 6.1 0.00 0.00 0.00 50 1010.1
20260504181849 71 274 4.3 6.1 0.00 0.00 0.00 50 1010.1
20260504180350 71 284 2.6 5.2 0.00 0.00 0.00 51 1010.3
20260504174829 69 280 3.5 6.1 0.00 0.00 0.00 55 1010.2
20260504173331 68 266 2.6 7.0 0.00 0.00 0.00 60 1010.1
20260504171832 68 257 2.6 6.1 0.00 0.00 0.00 60 1010.0
20260504170334 66 265 1.7 6.1 0.00 0.00 0.00 61 1010.0
20260504160327 61 227 2.6 4.3 0.00 0.00 0.00 71 1009.8
20260504150339 56 75 0.9 2.6 0.00 0.00 0.00 81 1009.4
20260504140333 54 75 0.0 0.0 0.00 0.00 0.00 83 1009.0
20260504130336 54 75 0.0 0.0 0.00 0.00 0.00 81 1008.7